02-07-2023, 00:00:09,    251,    0.1,   11.9,   0.00,   0.00, 1008.2,   64.0, -999.0
02-07-2023, 00:00:19,    251,    0.0,   11.8,   0.00,   0.00, 1008.2,   64.0, -999.0
02-07-2023, 00:00:30,    241,    0.7,   11.8,   0.00,   0.00, 1008.2,   64.1, -999.0
02-07-2023, 00:00:39,    244,    1.3,   11.9,   0.00,   0.00, 1008.2,   64.3, -999.0
02-07-2023, 00:00:49,    245,    1.5,   11.8,   0.00,   0.00, 1008.3,   64.3, -999.0
02-07-2023, 00:00:59,    236,    1.6,   11.9,   0.00,   0.00, 1008.3,   64.2, -999.0
02-07-2023, 00:01:09,    235,    0.4,   11.9,   0.00,   0.00, 1008.2,   64.2, -999.0
02-07-2023, 00:01:19,    235,    0.6,   11.9,   0.00,   0.00, 1008.3,   64.3, -999.0
02-07-2023, 00:01:29,    235,    0.2,   11.8,   0.00,   0.00, 1008.2,   64.1, -999.0
02-07-2023, 00:01:39,    235,    0.0,   11.8,   0.00,   0.00, 1008.1,   63.9, -999.0
02-07-2023, 00:01:49,    235,    0.0,   11.8,   0.00,   0.00, 1008.1,   63.9, -999.0
02-07-2023, 00:01:59,    288,    0.6,   11.8,   0.00,   0.00, 1008.2,   64.0, -999.0
02-07-2023, 00:02:09,    287,    0.4,   11.7,   0.00,   0.00, 1008.2,   64.1, -999.0
02-07-2023, 00:02:19,    286,    0.0,   11.7,   0.00,   0.00, 1008.2,   63.9, -999.0
02-07-2023, 00:02:29,    286,    0.0,   11.8,   0.00,   0.00, 1008.2,   63.9, -999.0
02-07-2023, 00:02:39,    286,    0.1,   11.8,   0.00,   0.00, 1008.1,   64.1, -999.0
02-07-2023, 00:02:49,    250,    0.3,   11.8,   0.00,   0.00, 1008.2,   64.3, -999.0
02-07-2023, 00:02:59,    251,    0.1,   11.9,   0.00,   0.00, 1008.2,   64.3, -999.0
02-07-2023, 00:03:09,    251,    0.0,   11.7,   0.00,   0.00, 1008.1,   64.1, -999.0
02-07-2023, 00:03:19,    251,    0.0,   11.7,   0.00,   0.00, 1008.1,   64.1, -999.0
02-07-2023, 00:03:29,    250,    0.0,   11.7,   0.00,   0.00, 1008.2,   64.0, -999.0
02-07-2023, 00:03:39,    250,    0.2,   11.8,   0.00,   0.00, 1008.2,   64.1, -999.0
02-07-2023, 00:03:49,    250,    0.0,   11.8,   0.00,   0.00, 1008.2,   64.1, -999.0
02-07-2023, 00:03:59,    250,    0.0,   11.8,   0.00,   0.00, 1008.2,   64.1, -999.0
02-07-2023, 00:04:09,    250,    0.0,   11.7,   0.00,   0.00, 1008.2,   64.2, -999.0
02-07-2023, 00:04:19,    250,    0.0,   11.6,   0.00,   0.00, 1008.2,   64.0, -999.0
02-07-2023, 00:04:29,    250,    0.0,   11.7,   0.00,   0.00, 1008.2,   64.1, -999.0
02-07-2023, 00:04:39,    250,    0.0,   11.7,   0.00,   0.00, 1008.1,   64.1, -999.0
02-07-2023, 00:04:49,    227,    0.5,   11.7,   0.00,   0.00, 1008.3,   64.2, -999.0
02-07-2023, 00:04:59,    241,    1.0,   11.7,   0.00,   0.00, 1008.3,   64.5, -999.0
02-07-2023, 00:05:09,    241,    0.7,   11.8,   0.00,   0.00, 1008.3,   64.6, -999.0
02-07-2023, 00:05:19,    240,    0.3,   11.7,   0.00,   0.00, 1008.2,   64.4, -999.0
02-07-2023, 00:05:28,    240,    0.0,   11.6,   0.00,   0.00, 1008.2,   64.3, -999.0
02-07-2023, 00:05:39,    241,    0.0,   11.7,   0.00,   0.00, 1008.2,   64.4, -999.0
02-07-2023, 00:05:49,    251,    1.1,   11.7,   0.00,   0.00, 1008.3,   64.7, -999.0
02-07-2023, 00:05:58,    254,    1.3,   11.7,   0.00,   0.00, 1008.3,   64.7, -999.0
02-07-2023, 00:06:08,    254,    0.6,   11.7,   0.00,   0.00, 1008.3,   64.6, -999.0
02-07-2023, 00:06:19,    254,    0.3,   11.7,   0.00,   0.00, 1008.2,   64.7, -999.0
02-07-2023, 00:06:28,    255,    0.0,   11.6,   0.00,   0.00, 1008.2,   64.3, -999.0
02-07-2023, 00:06:38,    254,    0.0,   11.6,   0.00,   0.00, 1008.2,   64.5, -999.0
02-07-2023, 00:06:49,    255,    0.0,   11.5,   0.00,   0.00, 1008.2,   64.5, -999.0
02-07-2023, 00:06:58,    254,    0.0,   11.5,   0.00,   0.00, 1008.2,   64.5, -999.0
02-07-2023, 00:07:08,    253,    0.0,   11.6,   0.00,   0.00, 1008.2,   64.5, -999.0
02-07-2023, 00:07:18,    253,    0.4,   11.7,   0.00,   0.00, 1008.3,   64.8, -999.0
02-07-2023, 00:07:29,    253,    0.2,   11.6,   0.00,   0.00, 1008.2,   64.8, -999.0
02-07-2023, 00:07:38,    253,    0.0,   11.6,   0.00,   0.00, 1008.2,   64.6, -999.0
02-07-2023, 00:07:48,    253,    0.0,   11.6,   0.00,   0.00, 1008.2,   64.6, -999.0
02-07-2023, 00:07:58,    253,    0.0,   11.6,   0.00,   0.00, 1008.2,   64.6, -999.0
02-07-2023, 00:08:08,    253,    0.0,   11.5,   0.00,   0.00, 1008.2,   64.7, -999.0
02-07-2023, 00:08:18,    253,    0.3,   11.6,   0.00,   0.00, 1008.3,   64.8, -999.0
02-07-2023, 00:08:28,    243,    0.8,   11.7,   0.00,   0.00, 1008.3,   64.9, -999.0
02-07-2023, 00:08:38,    242,    0.0,   11.6,   0.00,   0.00, 1008.2,   64.8, -999.0
02-07-2023, 00:08:48,    242,    0.0,   11.7,   0.00,   0.00, 1008.2,   64.9, -999.0
02-07-2023, 00:08:58,    243,    0.5,   11.6,   0.00,   0.00, 1008.3,   64.9, -999.0
02-07-2023, 00:09:08,    244,    1.1,   11.8,   0.00,   0.00, 1008.3,   65.1, -999.0
02-07-2023, 00:09:18,    244,    0.7,   11.7,   0.00,   0.00, 1008.3,   64.9, -999.0
02-07-2023, 00:09:28,    243,    0.0,   11.5,   0.00,   0.00, 1008.3,   64.6, -999.0
02-07-2023, 00:09:38,    243,    0.0,   11.6,   0.00,   0.00, 1008.2,   64.6, -999.0
02-07-2023, 00:09:48,    244,    0.0,   11.6,   0.00,   0.00, 1008.2,   64.6, -999.0
02-07-2023, 00:09:58,    246,    0.3,   11.6,   0.00,   0.00, 1008.3,   64.7, -999.0
02-07-2023, 00:10:08,    245,    1.7,   11.6,   0.00,   0.00, 1008.3,   65.0, -999.0
02-07-2023, 00:10:18,    246,    1.1,   11.6,   0.00,   0.00, 1008.3,   65.1, -999.0
02-07-2023, 00:10:28,    249,    0.9,   11.6,   0.00,   0.00, 1008.3,   65.2, -999.0
02-07-2023, 00:10:38,    248,    1.0,   11.6,   0.00,   0.00, 1008.3,   65.2, -999.0
02-07-2023, 00:10:48,    246,    0.9,   11.6,   0.00,   0.00, 1008.4,   65.3, -999.0
02-07-2023, 00:10:58,    247,    0.3,   11.6,   0.00,   0.00, 1008.3,   65.3, -999.0
02-07-2023, 00:11:08,    247,    0.2,   11.5,   0.00,   0.00, 1008.2,   65.3, -999.0
02-07-2023, 00:11:18,    251,    1.3,   11.6,   0.00,   0.00, 1008.3,   65.5, -999.0
02-07-2023, 00:11:28,    266,    1.8,   11.6,   0.00,   0.00, 1008.3,   65.4, -999.0
02-07-2023, 00:11:38,    266,    0.4,   11.5,   0.00,   0.00, 1008.3,   65.4, -999.0
02-07-2023, 00:11:48,    266,    0.0,   11.5,   0.00,   0.00, 1008.2,   65.2, -999.0
02-07-2023, 00:11:58,    265,    0.0,   11.5,   0.00,   0.00, 1008.2,   65.3, -999.0
02-07-2023, 00:12:08,    265,    0.0,   11.4,   0.00,   0.00, 1008.2,   65.2, -999.0
02-07-2023, 00:12:18,    265,    0.0,   11.5,   0.00,   0.00, 1008.2,   65.5, -999.0
02-07-2023, 00:12:27,    265,    0.0,   11.4,   0.00,   0.00, 1008.2,   65.3, -999.0
02-07-2023, 00:12:38,    266,    0.0,   11.4,   0.00,   0.00, 1008.2,   65.3, -999.0
02-07-2023, 00:12:48,    265,    0.0,   11.4,   0.00,   0.00, 1008.2,   65.3, -999.0
02-07-2023, 00:12:57,    266,    0.0,   11.4,   0.00,   0.00, 1008.2,   65.4, -999.0
02-07-2023, 00:13:07,    238,    1.1,   11.5,   0.00,   0.00, 1008.3,   65.7, -999.0
02-07-2023, 00:13:18,    258,    1.4,   11.5,   0.00,   0.00, 1008.3,   65.9, -999.0
02-07-2023, 00:13:28,    257,    1.3,   11.5,   0.00,   0.00, 1008.3,   66.0, -999.0
02-07-2023, 00:13:37,    257,    0.4,   11.5,   0.00,   0.00, 1008.3,   65.8, -999.0
02-07-2023, 00:13:47,    257,    0.0,   11.3,   0.00,   0.00, 1008.2,   65.6, -999.0
02-07-2023, 00:13:58,    257,    0.1,   11.5,   0.00,   0.00, 1008.3,   65.8, -999.0
02-07-2023, 00:14:07,    257,    0.0,   11.5,   0.00,   0.00, 1008.2,   65.5, -999.0
02-07-2023, 00:14:17,    257,    0.0,   11.4,   0.00,   0.00, 1008.2,   65.6, -999.0
02-07-2023, 00:14:27,    257,    0.0,   11.4,   0.00,   0.00, 1008.2,   65.5, -999.0
02-07-2023, 00:14:37,    257,    0.0,   11.4,   0.00,   0.00, 1008.2,   65.5, -999.0
02-07-2023, 00:14:47,    257,    0.0,   11.4,   0.00,   0.00, 1008.2,   65.6, -999.0
02-07-2023, 00:14:57,    257,    0.5,   11.5,   0.00,   0.00, 1008.3,   65.9, -999.0
02-07-2023, 00:15:07,    257,    0.0,   11.4,   0.00,   0.00, 1008.2,   65.6, -999.0
02-07-2023, 00:15:17,    257,    0.0,   11.4,   0.00,   0.00, 1008.2,   65.7, -999.0
02-07-2023, 00:15:27,    257,    0.0,   11.4,   0.00,   0.00, 1008.2,   65.7, -999.0
02-07-2023, 00:15:37,    257,    0.0,   11.5,   0.00,   0.00, 1008.2,   65.8, -999.0
02-07-2023, 00:15:47,    259,    0.7,   11.5,   0.00,   0.00, 1008.3,   66.0, -999.0
02-07-2023, 00:15:57,    277,    1.3,   11.5,   0.00,   0.00, 1008.3,   66.1, -999.0
02-07-2023, 00:16:07,    274,    1.8,   11.4,   0.00,   0.00, 1008.3,   66.0, -999.0
02-07-2023, 00:16:17,    273,    0.6,   11.4,   0.00,   0.00, 1008.3,   66.1, -999.0
02-07-2023, 00:16:27,    273,    0.1,   11.4,   0.00,   0.00, 1008.2,   65.8, -999.0
02-07-2023, 00:16:37,    274,    0.0,   11.4,   0.00,   0.00, 1008.1,   65.8, -999.0
02-07-2023, 00:16:47,    274,    0.0,   11.4,   0.00,   0.00, 1008.2,   65.9, -999.0
02-07-2023, 00:16:57,    273,    0.0,   11.3,   0.00,   0.00, 1008.2,   66.0, -999.0
02-07-2023, 00:17:07,    274,    0.2,   11.4,   0.00,   0.00, 1008.3,   66.3, -999.0
02-07-2023, 00:17:17,    273,    0.0,   11.4,   0.00,   0.00, 1008.2,   66.2, -999.0
02-07-2023, 00:17:27,    273,    0.0,   11.3,   0.00,   0.00, 1008.2,   66.1, -999.0
02-07-2023, 00:17:37,    273,    0.6,   11.4,   0.00,   0.00, 1008.2,   66.3, -999.0
02-07-2023, 00:17:47,    258,    2.1,   11.4,   0.00,   0.00, 1008.3,   66.5, -999.0
02-07-2023, 00:17:57,    258,    0.8,   11.5,   0.00,   0.00, 1008.3,   66.6, -999.0
02-07-2023, 00:18:07,    256,    1.2,   11.4,   0.00,   0.00, 1008.3,   66.5, -999.0
02-07-2023, 00:18:17,    256,    0.3,   11.4,   0.00,   0.00, 1008.3,   66.6, -999.0
02-07-2023, 00:18:27,    257,    0.0,   11.3,   0.00,   0.00, 1008.2,   66.2, -999.0
02-07-2023, 00:18:37,    256,    0.0,   11.3,   0.00,   0.00, 1008.2,   66.3, -999.0
02-07-2023, 00:18:47,    256,    0.0,   11.3,   0.00,   0.00, 1008.2,   66.3, -999.0
02-07-2023, 00:18:56,    256,    0.0,   11.3,   0.00,   0.00, 1008.2,   66.2, -999.0
02-07-2023, 00:19:07,    256,    0.0,   11.2,   0.00,   0.00, 1008.2,   66.3, -999.0
02-07-2023, 00:19:17,    256,    0.0,   11.3,   0.00,   0.00, 1008.2,   66.4, -999.0
02-07-2023, 00:19:27,    256,    0.0,   11.2,   0.00,   0.00, 1008.2,   66.4, -999.0
02-07-2023, 00:19:36,    257,    0.0,   11.2,   0.00,   0.00, 1008.2,   66.5, -999.0
02-07-2023, 00:19:47,    256,    0.0,   11.2,   0.00,   0.00, 1008.2,   66.7, -999.0
02-07-2023, 00:19:57,    257,    0.0,   11.2,   0.00,   0.00, 1008.2,   66.6, -999.0
02-07-2023, 00:20:06,    256,    0.3,   11.3,   0.00,   0.00, 1008.2,   66.9, -999.0
02-07-2023, 00:20:17,    256,    0.2,   11.2,   0.00,   0.00, 1008.2,   67.0, -999.0
02-07-2023, 00:20:27,    252,    0.7,   11.3,   0.00,   0.00, 1008.3,   67.1, -999.0
02-07-2023, 00:20:36,    252,    0.0,   11.3,   0.00,   0.00, 1008.2,   66.9, -999.0
02-07-2023, 00:20:46,    253,    0.2,   11.3,   0.00,   0.00, 1008.2,   67.1, -999.0
02-07-2023, 00:20:57,    252,    0.1,   11.3,   0.00,   0.00, 1008.3,   67.1, -999.0
02-07-2023, 00:21:06,    253,    0.1,   11.3,   0.00,   0.00, 1008.3,   67.1, -999.0
02-07-2023, 00:21:16,    253,    0.5,   11.2,   0.00,   0.00, 1008.3,   67.3, -999.0
02-07-2023, 00:21:26,    253,    0.0,   11.2,   0.00,   0.00, 1008.2,   67.0, -999.0
02-07-2023, 00:21:36,    253,    0.0,   11.2,   0.00,   0.00, 1008.2,   67.0, -999.0
02-07-2023, 00:21:46,    253,    0.0,   11.2,   0.00,   0.00, 1008.3,   67.2, -999.0
02-07-2023, 00:21:56,    253,    0.0,   11.2,   0.00,   0.00, 1008.2,   67.2, -999.0
02-07-2023, 00:22:06,    253,    0.8,   11.3,   0.00,   0.00, 1008.3,   67.6, -999.0
02-07-2023, 00:22:16,    253,    0.3,   11.3,   0.00,   0.00, 1008.3,   67.5, -999.0
02-07-2023, 00:22:26,    252,    0.0,   11.2,   0.00,   0.00, 1008.2,   67.2, -999.0
02-07-2023, 00:22:36,    251,    0.0,   11.2,   0.00,   0.00, 1008.2,   67.3, -999.0
02-07-2023, 00:22:46,    255,    0.0,   11.1,   0.00,   0.00, 1008.2,   67.5, -999.0
02-07-2023, 00:22:56,    255,    0.0,   11.2,   0.00,   0.00, 1008.2,   67.3, -999.0
02-07-2023, 00:23:06,    255,    0.0,   11.2,   0.00,   0.00, 1008.2,   67.2, -999.0
02-07-2023, 00:23:16,    255,    0.0,   11.2,   0.00,   0.00, 1008.2,   67.3, -999.0
02-07-2023, 00:23:26,    255,    0.0,   11.2,   0.00,   0.00, 1008.2,   67.3, -999.0
02-07-2023, 00:23:36,    255,    0.0,   11.2,   0.00,   0.00, 1008.2,   67.3, -999.0
02-07-2023, 00:23:46,    255,    0.0,   11.2,   0.00,   0.00, 1008.2,   67.2, -999.0
02-07-2023, 00:23:56,    255,    0.0,   11.2,   0.00,   0.00, 1008.2,   67.2, -999.0
02-07-2023, 00:24:06,    255,    0.0,   11.2,   0.00,   0.00, 1008.2,   67.2, -999.0
02-07-2023, 00:24:16,    256,    0.0,   11.2,   0.00,   0.00, 1008.2,   67.4, -999.0
02-07-2023, 00:24:26,    255,    0.0,   11.2,   0.00,   0.00, 1008.2,   67.4, -999.0
02-07-2023, 00:24:36,    255,    0.2,   11.2,   0.00,   0.00, 1008.2,   67.5, -999.0
02-07-2023, 00:24:46,    277,    0.5,   11.2,   0.00,   0.00, 1008.3,   67.8, -999.0
02-07-2023, 00:24:56,    276,    0.9,   11.2,   0.00,   0.00, 1008.3,   67.8, -999.0
02-07-2023, 00:25:06,    275,    1.1,   11.2,   0.00,   0.00, 1008.3,   67.8, -999.0
02-07-2023, 00:25:16,    277,    0.9,   11.3,   0.00,   0.00, 1008.3,   68.0, -999.0
02-07-2023, 00:25:26,    277,    0.0,   11.1,   0.00,   0.00, 1008.2,   67.7, -999.0
02-07-2023, 00:25:36,    277,    0.0,   11.2,   0.00,   0.00, 1008.2,   67.6, -999.0
02-07-2023, 00:25:46,    278,    0.0,   11.1,   0.00,   0.00, 1008.2,   67.8, -999.0
02-07-2023, 00:25:56,    274,    0.3,   11.2,   0.00,   0.00, 1008.3,   68.0, -999.0
02-07-2023, 00:26:06,    272,    0.6,   11.2,   0.00,   0.00, 1008.3,   68.2, -999.0
02-07-2023, 00:26:16,    272,    1.7,   11.2,   0.00,   0.00, 1008.3,   68.2, -999.0
02-07-2023, 00:26:26,    271,    0.8,   11.2,   0.00,   0.00, 1008.3,   68.2, -999.0
02-07-2023, 00:26:35,    288,    1.5,   11.2,   0.00,   0.00, 1008.3,   68.2, -999.0
02-07-2023, 00:26:46,    288,    0.6,   11.2,   0.00,   0.00, 1008.2,   68.4, -999.0
02-07-2023, 00:26:56,    288,    0.1,   11.1,   0.00,   0.00, 1008.2,   68.1, -999.0
02-07-2023, 00:27:05,    283,    1.3,   11.1,   0.00,   0.00, 1008.3,   68.3, -999.0
02-07-2023, 00:27:15,    283,    0.5,   11.1,   0.00,   0.00, 1008.3,   68.2, -999.0
02-07-2023, 00:27:26,    250,    0.3,   11.0,   0.00,   0.00, 1008.2,   68.2, -999.0
02-07-2023, 00:27:35,    175,    0.6,   11.1,   0.00,   0.00, 1008.3,   68.5, -999.0
02-07-2023, 00:27:45,    205,    0.0,   11.1,   0.00,   0.00, 1008.2,   68.4, -999.0
02-07-2023, 00:27:55,    205,    0.0,   11.0,   0.00,   0.00, 1008.2,   68.4, -999.0
02-07-2023, 00:28:06,    215,    0.0,   11.0,   0.00,   0.00, 1008.2,   68.4, -999.0
02-07-2023, 00:28:15,    232,    0.6,   11.2,   0.00,   0.00, 1008.3,   68.5, -999.0
02-07-2023, 00:28:25,    232,    1.1,   11.2,   0.00,   0.00, 1008.3,   68.7, -999.0
02-07-2023, 00:28:36,    230,    0.3,   11.1,   0.00,   0.00, 1008.3,   68.7, -999.0
02-07-2023, 00:28:45,    248,    0.3,   11.1,   0.00,   0.00, 1008.2,   68.7, -999.0
02-07-2023, 00:28:55,    249,    0.1,   11.0,   0.00,   0.00, 1008.3,   68.8, -999.0
02-07-2023, 00:29:05,    252,    1.1,   11.2,   0.00,   0.00, 1008.3,   68.9, -999.0
02-07-2023, 00:29:15,    252,    0.6,   11.2,   0.00,   0.00, 1008.3,   68.9, -999.0
02-07-2023, 00:29:25,    267,    0.6,   11.2,   0.00,   0.00, 1008.3,   68.7, -999.0
02-07-2023, 00:29:35,    275,    1.7,   11.2,   0.00,   0.00, 1008.3,   69.0, -999.0
02-07-2023, 00:29:45,    275,    0.9,   11.1,   0.00,   0.00, 1008.3,   69.1, -999.0
02-07-2023, 00:29:55,    274,    0.8,   11.2,   0.00,   0.00, 1008.3,   68.9, -999.0
02-07-2023, 00:30:05,    264,    1.4,   11.2,   0.00,   0.00, 1008.3,   69.1, -999.0
02-07-2023, 00:30:15,    265,    1.0,   11.1,   0.00,   0.00, 1008.3,   69.2, -999.0
02-07-2023, 00:30:25,    267,    0.3,   11.1,   0.00,   0.00, 1008.3,   69.1, -999.0
02-07-2023, 00:30:35,    270,    0.7,   11.0,   0.00,   0.00, 1008.3,   69.2, -999.0
02-07-2023, 00:30:45,    270,    0.1,   11.1,   0.00,   0.00, 1008.2,   69.0, -999.0
02-07-2023, 00:30:55,    270,    1.4,   11.1,   0.00,   0.00, 1008.3,   69.2, -999.0
02-07-2023, 00:31:05,    271,    1.0,   11.1,   0.00,   0.00, 1008.3,   69.2, -999.0
02-07-2023, 00:31:15,    271,    0.1,   11.1,   0.00,   0.00, 1008.2,   69.0, -999.0
02-07-2023, 00:31:25,    270,    0.2,   11.1,   0.00,   0.00, 1008.2,   69.0, -999.0
02-07-2023, 00:31:35,    270,    0.0,   11.0,   0.00,   0.00, 1008.1,   69.0, -999.0
02-07-2023, 00:31:45,    270,    0.0,   11.0,   0.00,   0.00, 1008.2,   69.0, -999.0
02-07-2023, 00:31:55,    268,    0.3,   11.0,   0.00,   0.00, 1008.2,   69.2, -999.0
02-07-2023, 00:32:05,    269,    1.5,   11.2,   0.00,   0.00, 1008.3,   69.4, -999.0
02-07-2023, 00:32:15,    270,    1.1,   11.1,   0.00,   0.00, 1008.3,   69.5, -999.0
02-07-2023, 00:32:25,    270,    0.4,   11.0,   0.00,   0.00, 1008.2,   69.4, -999.0
02-07-2023, 00:32:35,    270,    0.7,   11.0,   0.00,   0.00, 1008.3,   69.6, -999.0
02-07-2023, 00:32:45,    269,    1.0,   11.1,   0.00,   0.00, 1008.3,   69.6, -999.0
02-07-2023, 00:32:55,    270,    1.3,   11.1,   0.00,   0.00, 1008.3,   69.5, -999.0
02-07-2023, 00:33:05,    270,    1.1,   11.1,   0.00,   0.00, 1008.3,   69.6, -999.0
02-07-2023, 00:33:15,    270,    0.0,   11.0,   0.00,   0.00, 1008.2,   69.3, -999.0
02-07-2023, 00:33:25,    270,    0.3,   11.0,   0.00,   0.00, 1008.2,   69.5, -999.0
02-07-2023, 00:33:34,    270,    0.3,   11.0,   0.00,   0.00, 1008.3,   69.7, -999.0
02-07-2023, 00:33:45,    270,    0.0,   10.9,   0.00,   0.00, 1008.2,   69.4, -999.0
02-07-2023, 00:33:55,    271,    0.0,   10.9,   0.00,   0.00, 1008.2,   69.3, -999.0
02-07-2023, 00:34:04,    270,    0.0,   10.9,   0.00,   0.00, 1008.2,   69.3, -999.0
02-07-2023, 00:34:14,    265,    1.1,   11.0,   0.00,   0.00, 1008.3,   69.6, -999.0
02-07-2023, 00:34:25,    265,    0.4,   11.0,   0.00,   0.00, 1008.3,   69.7, -999.0
02-07-2023, 00:34:35,    265,    0.0,   11.0,   0.00,   0.00, 1008.2,   69.5, -999.0
02-07-2023, 00:34:44,    264,    0.0,   10.9,   0.00,   0.00, 1008.2,   69.5, -999.0
02-07-2023, 00:34:54,    265,    0.0,   10.9,   0.00,   0.00, 1008.2,   69.5, -999.0
02-07-2023, 00:35:05,    265,    0.0,   10.9,   0.00,   0.00, 1008.2,   69.7, -999.0
02-07-2023, 00:35:14,    265,    0.0,   10.8,   0.00,   0.00, 1008.2,   69.6, -999.0
02-07-2023, 00:35:24,    265,    0.1,   10.9,   0.00,   0.00, 1008.2,   69.9, -999.0
02-07-2023, 00:35:35,    265,    0.6,   10.9,   0.00,   0.00, 1008.3,   70.2, -999.0
02-07-2023, 00:35:44,    268,    1.0,   10.9,   0.00,   0.00, 1008.3,   70.3, -999.0
02-07-2023, 00:35:54,    266,    1.3,   11.0,   0.00,   0.00, 1008.3,   70.3, -999.0
02-07-2023, 00:36:04,    266,    0.8,   11.0,   0.00,   0.00, 1008.3,   70.3, -999.0
02-07-2023, 00:36:14,    267,    0.0,   10.9,   0.00,   0.00, 1008.3,   70.2, -999.0
02-07-2023, 00:36:24,    274,    0.8,   10.9,   0.00,   0.00, 1008.3,   70.5, -999.0
02-07-2023, 00:36:34,    275,    0.3,   11.0,   0.00,   0.00, 1008.3,   70.4, -999.0
02-07-2023, 00:36:44,    274,    0.0,   10.9,   0.00,   0.00, 1008.2,   70.2, -999.0
02-07-2023, 00:36:54,    275,    0.0,   10.9,   0.00,   0.00, 1008.2,   70.1, -999.0
02-07-2023, 00:37:04,    275,    0.0,   10.9,   0.00,   0.00, 1008.2,   70.2, -999.0
02-07-2023, 00:37:14,    275,    0.0,   10.8,   0.00,   0.00, 1008.2,   70.2, -999.0
02-07-2023, 00:37:24,    274,    0.0,   10.8,   0.00,   0.00, 1008.2,   70.1, -999.0
02-07-2023, 00:37:34,    272,    1.0,   11.0,   0.00,   0.00, 1008.3,   70.5, -999.0
02-07-2023, 00:37:44,    272,    0.4,   11.0,   0.00,   0.00, 1008.3,   70.5, -999.0
02-07-2023, 00:37:54,    271,    0.1,   10.9,   0.00,   0.00, 1008.3,   70.4, -999.0
02-07-2023, 00:38:04,    271,    0.4,   10.9,   0.00,   0.00, 1008.3,   70.3, -999.0
02-07-2023, 00:38:14,    272,    1.2,   11.0,   0.00,   0.00, 1008.3,   70.7, -999.0
02-07-2023, 00:38:24,    272,    1.0,   10.9,   0.00,   0.00, 1008.3,   70.5, -999.0
02-07-2023, 00:38:34,    273,    0.4,   11.0,   0.00,   0.00, 1008.3,   70.7, -999.0
02-07-2023, 00:38:44,    268,    0.6,   11.0,   0.00,   0.00, 1008.3,   70.6, -999.0
02-07-2023, 00:38:54,    268,    0.0,   11.0,   0.00,   0.00, 1008.2,   70.4, -999.0
02-07-2023, 00:39:04,    268,    0.0,   11.0,   0.00,   0.00, 1008.3,   70.4, -999.0
02-07-2023, 00:39:14,    269,    0.0,   10.9,   0.00,   0.00, 1008.2,   70.4, -999.0
02-07-2023, 00:39:24,    269,    0.3,   11.0,   0.00,   0.00, 1008.3,   70.7, -999.0
02-07-2023, 00:39:34,    272,    1.0,   11.0,   0.00,   0.00, 1008.3,   70.6, -999.0
02-07-2023, 00:39:44,    272,    2.4,   11.1,   0.00,   0.00, 1008.3,   70.6, -999.0
02-07-2023, 00:39:54,    273,    1.5,   11.1,   0.00,   0.00, 1008.3,   70.6, -999.0
02-07-2023, 00:40:04,    274,    0.9,   11.2,   0.00,   0.00, 1008.3,   70.5, -999.0
02-07-2023, 00:40:14,    275,    0.8,   11.0,   0.00,   0.00, 1008.3,   70.5, -999.0
02-07-2023, 00:40:24,    275,    0.2,   11.0,   0.00,   0.00, 1008.3,   70.3, -999.0
02-07-2023, 00:40:33,    275,    0.0,   11.0,   0.00,   0.00, 1008.3,   70.0, -999.0
02-07-2023, 00:40:44,    275,    0.3,   11.0,   0.00,   0.00, 1008.3,   70.3, -999.0
02-07-2023, 00:40:54,    275,    0.4,   11.0,   0.00,   0.00, 1008.3,   70.3, -999.0
02-07-2023, 00:41:03,    275,    0.0,   10.9,   0.00,   0.00, 1008.2,   70.0, -999.0
02-07-2023, 00:41:13,    274,    0.0,   10.9,   0.00,   0.00, 1008.2,   70.1, -999.0
02-07-2023, 00:41:24,    270,    0.0,   11.0,   0.00,   0.00, 1008.2,   70.1, -999.0
02-07-2023, 00:41:33,    275,    0.5,   11.0,   0.00,   0.00, 1008.2,   70.2, -999.0
02-07-2023, 00:41:43,    276,    0.5,   11.0,   0.00,   0.00, 1008.3,   70.4, -999.0
02-07-2023, 00:41:54,    276,    0.2,   11.0,   0.00,   0.00, 1008.2,   70.3, -999.0
02-07-2023, 00:42:04,    276,    0.1,   11.0,   0.00,   0.00, 1008.2,   70.3, -999.0
02-07-2023, 00:42:13,    276,    0.6,   11.0,   0.00,   0.00, 1008.3,   70.5, -999.0
02-07-2023, 00:42:23,    276,    0.3,   11.0,   0.00,   0.00, 1008.2,   70.2, -999.0
02-07-2023, 00:42:34,    277,    0.2,   11.0,   0.00,   0.00, 1008.2,   70.2, -999.0
02-07-2023, 00:42:43,    236,    0.4,   11.1,   0.00,   0.00, 1008.2,   70.3, -999.0
02-07-2023, 00:42:53,    241,    1.7,   11.0,   0.00,   0.00, 1008.3,   70.3, -999.0
02-07-2023, 00:43:03,    244,    0.3,   11.1,   0.00,   0.00, 1008.3,   70.3, -999.0
02-07-2023, 00:43:13,    250,    0.2,   11.1,   0.00,   0.00, 1008.2,   70.2, -999.0
02-07-2023, 00:43:23,    251,    0.6,   11.1,   0.00,   0.00, 1008.3,   70.3, -999.0
02-07-2023, 00:43:33,    272,    2.1,   11.1,   0.00,   0.00, 1008.3,   70.2, -999.0
02-07-2023, 00:43:43,    273,    1.9,   11.1,   0.00,   0.00, 1008.3,   70.1, -999.0
02-07-2023, 00:43:53,    273,    0.6,   11.1,   0.00,   0.00, 1008.2,   69.9, -999.0
02-07-2023, 00:44:03,    273,    0.0,   11.0,   0.00,   0.00, 1008.2,   69.8, -999.0
02-07-2023, 00:44:13,    271,    0.4,   11.0,   0.00,   0.00, 1008.2,   69.9, -999.0
02-07-2023, 00:44:23,    270,    0.7,   11.1,   0.00,   0.00, 1008.3,   69.9, -999.0
02-07-2023, 00:44:33,    270,    0.5,   11.2,   0.00,   0.00, 1008.3,   70.0, -999.0
02-07-2023, 00:44:43,    270,    0.0,   11.0,   0.00,   0.00, 1008.2,   69.8, -999.0
02-07-2023, 00:44:53,    270,    0.0,   11.0,   0.00,   0.00, 1008.2,   69.7, -999.0
02-07-2023, 00:45:03,    270,    0.0,   10.9,   0.00,   0.00, 1008.2,   69.8, -999.0
02-07-2023, 00:45:13,    270,    0.0,   11.0,   0.00,   0.00, 1008.2,   69.7, -999.0
02-07-2023, 00:45:23,    271,    0.2,   11.0,   0.00,   0.00, 1008.2,   70.0, -999.0
02-07-2023, 00:45:33,    270,    0.0,   11.0,   0.00,   0.00, 1008.2,   70.0, -999.0
02-07-2023, 00:45:43,    270,    0.0,   11.0,   0.00,   0.00, 1008.2,   69.8, -999.0
02-07-2023, 00:45:53,    270,    0.0,   11.0,   0.00,   0.00, 1008.1,   69.7, -999.0
02-07-2023, 00:46:03,    269,    0.3,   11.0,   0.00,   0.00, 1008.2,   70.0, -999.0
02-07-2023, 00:46:13,    269,    0.2,   11.1,   0.00,   0.00, 1008.2,   69.9, -999.0
02-07-2023, 00:46:23,    269,    0.0,   11.0,   0.00,   0.00, 1008.2,   69.7, -999.0
02-07-2023, 00:46:33,    270,    0.0,   11.0,   0.00,   0.00, 1008.2,   69.7, -999.0
02-07-2023, 00:46:43,    269,    0.0,   11.0,   0.00,   0.00, 1008.2,   69.7, -999.0
02-07-2023, 00:46:53,    268,    0.0,   11.0,   0.00,   0.00, 1008.2,   69.7, -999.0